Location: *
(38.9555°S, 57.3572°E)
Time: 01:42:11
(UTC+00:00)

Cosmos 1892 Rocket - Pass Details

Date: 15 July 2020
Orbit: 607 x 632 km, 82.5° (Epoch: 06 August)

Event Time Altitude Azimuth Distance (km) Brightness Sun altitude
Rises 13:37:12 0° 188° (S) 2,912 6.9 -6.0°
Reaches altitude 10° 13:39:27 10° 188° (S) 1,997 6.0 -6.4°
Maximum altitude 13:43:52 89° 267° (W) 622 3.6 -7.2°
Drops below altitude 10° 13:48:14 10° 6° (N) 1,963 6.3 -8.0°
Sets 13:50:25 0° 6° (N) 2,858 7.2 -8.4°
